Regional Weather Roundup
Issued by NWS Lake Charles, LA

Home | Current Version | Previous Version | Text Only | Print | Product List | Glossary On
Versions: 1 2 3 4 5 6 7 8 9 10 11 12 13 14 15 16 17 18 19 20 21 22 23 24 25 26 27 28 29 30 31 32 33 34 35 36 37 38 39 40 41 42 43 44 45 46 47 48 49 50
000
ASUS44 KLCH 072210
RWRLCH
REGIONAL WEATHER ROUNDUP
NATIONAL WEATHER SERVICE LAKE CHARLES LA
400 PM CST SUN FEB 07 2016

Note: "fair" indicates few or no clouds below 12,000 feet with no
significant weather and/or obstructions to visibility.


ACROSS SOUTHEAST TEXAS

CITY           SKY/WX    TMP DP  RH WIND       PRES   REMARKS
BEAUMONT       SUNNY     58  43  57 S15G21    30.17F
BEAUMONT CITY  FAIR      61  40  46 S12G18    30.17S
ORANGE         CLEAR     57  38  48 S10       30.19F
JASPER         SUNNY     62  33  33 S8        30.16S
$$

ACROSS CENTRAL LOUISIANA

CITY           SKY/WX    TMP DP  RH WIND       PRES   REMARKS
LEESVILLE      SUNNY     61  30  31 SW10      30.13S
FULLERTON      FAIR      62  29  28 VRB5      30.12R
ALEXANDRIA INT SUNNY     61  28  28 SW6       30.12S
ESLER FIELD    SUNNY     65  26  23 W9        30.13F
DERIDDER         N/A     62  28  28 SW8       30.17R
OAKDALE          N/A     60  32  34 S9        30.16R
OPELOUSAS      FAIR      58  32  37 SW7G16    30.16R
$$

ACROSS SOUTHWEST AND SOUTH CENTRAL LOUISIANA

CITY           SKY/WX    TMP DP  RH WIND       PRES   REMARKS
SULPHUR        CLEAR     58  38  46 MISG      30.19S
LAKE CHARLES   SUNNY     56  36  47 S13       30.18S
CHENNAULT INT  NOT AVBL
CAMERON PHI    CLEAR     55  39  54 S14       30.21S
DEQUINCY       FAIR      59  33  37 S12G18    30.16S
JENNINGS       FAIR      57  34  41 S9        30.18R
LAFAYETTE      SUNNY     59  30  33 W13       30.16S
NEW IBERIA     SUNNY     59  30  33 S10       30.17S
ABBEVILLE      FAIR      58  33  39 S13       30.17S
PATTERSON      SUNNY     57  28  33 SW12      30.18S
SALT POINT       N/A     55  41  59 VRB5      30.17F
$$

SELECTED SITES ACROSS THE REGION

CITY           SKY/WX    TMP DP  RH WIND       PRES   REMARKS
HOUSTON BUSH   MOSUNNY   65  33  30 VRB7      30.14S
HOUSTON HOBBY  MOSUNNY   63  43  48 S8G17     30.14F
GALVESTON      SUNNY     58  46  64 S13       30.17F
COLLEGE STAT   SUNNY     64  33  31 S8        30.12F
CONROE         SUNNY     63  32  31 S7        30.14F
HUNTSVILLE     SUNNY     64  36  35 S9        30.12F
LUFKIN         SUNNY     62  29  28 S7        30.13S
SHREVEPORT     SUNNY     63  28  26 SW7       30.10F
MONROE         SUNNY     62  28  27 SW10      30.11F
NATCHEZ MS     SUNNY     57  28  33 W10       30.14R
BATON ROUGE    SUNNY     61  25  25 SW10      30.14S
N.O. INTL ARPT SUNNY     59  19  21 VRB3      30.15F
SLIDELL        SUNNY     57  27  31 SW8       30.14S
$$

MARINE REPORTS

STATION/POSITION TIME  SKY/WX   TEMP    WIND        PRES    VSBY
                                AIR SEA DIR/SP/G
                 (UTC)          (F)     (DEG/KT/KT) (MB)    (MI)
BUOY 30 S HIGH I 2150            57 61  190/ 12/ 14 1021.5F
WVE H/P(F/S)=  1/ 6

SEA RIM ST PARK  2200            56     200/ 10/ 13 1022.5F
PORT ARTHUR      2100               56  190/  9/ 14 1022.2F
SABINE PASS N    2100            55 56  190/ 13/ 16 1023.5F
TEXAS POINT      NOT AVBL
CALCASIEU PASS   2100            53 57  210/ 14/ 17 1021.5F
LK CHARLES BEACH 2100            58 53              1022.0F
MARSH ISLAND     2100            54     200/  5/  9   N/A
WVE H/P(F/S)=  0

FRESH WATER LOCK 2100            53 54  170/ 11/ 14 1022.5F
AMERADA PASS     2100            56 52  210/  4/  8 1022.1F
$$



USA.gov is the U.S. government's official web portal to all federal, state and local government web resources and services.